[[{"header":{"parameterUnit":"m.s-1","parameterCategory":1,"la1":30.2991,"la2":30.254,"lo1":-89.0895,"lo2":-89.0444,"dy":0.0017,"dx":0.0017,"nx":28,"ny":28,"refTime":"2024-04-12T03:00:00:Z","depth":0,"parameterNumber":2,"parameterNumberName":"U-component_of_WINDS"},"data":[0,0,0,0,0,0,0,0,0,0,0,0,0,0,0,0,0,0,0,0,0,0,0,0,0,0,0,0,0,0,0,0,0,0,0,0,0,0,0,0,0,0,0,0,0,0,0,0,0,0,0,0,0,0,0,0,0,0,2.6671,2.6673,0,2.68,2.6802,2.6803,2.6845,2.6844,2.6844,2.6843,2.698,2.6984,2.6988,0,0,0,0,0,0,0,0,0,0,0,0,0,2.6467,2.6471,2.6671,2.6673,2.6674,2.68,2.6802,2.6804,2.6845,2.6844,2.6844,2.6843,2.6978,2.6983,2.6988,0,0,0,0,0,0,0,0,0,0,0,0,0,2.6572,2.6472,2.6671,2.671,2.6715,2.68,2.6802,2.6804,2.6845,2.6844,2.6844,2.6843,2.6977,2.6983,2.6989,2.7045,0,0,2.7008,2.7011,0,0,0,0,0,0,0,0,2.6566,2.6579,2.6703,2.6708,2.6713,2.6806,2.678,2.6885,2.6846,2.6796,2.6843,2.6842,2.6923,2.6933,2.696,2.7052,2.7058,2.7009,2.7013,2.7015,2.7017,0,0,0,0,0,0,0,2.6559,2.6574,2.6722,2.6705,2.6711,2.6724,2.6737,2.68,2.6863,2.68,2.6803,2.6818,2.6925,2.6954,2.6963,2.706,2.7009,2.7014,2.7018,2.702,2.721,2.7211,0,0,0,0,0,0,2.6544,2.6568,2.6718,2.6726,2.6636,2.6728,2.6743,2.6777,2.6862,2.6874,2.6819,2.6819,2.6943,2.6956,2.6968,2.7043,2.7015,2.7021,2.7025,2.7208,2.721,2.7211,0,0,0,0,0,0,2.6539,2.6557,2.6713,2.6648,2.6669,2.6732,2.677,2.678,2.6808,2.6876,2.6888,2.6835,2.6943,2.6959,2.7027,2.7048,2.7024,2.703,2.7207,2.7209,2.721,2.719,0,0,0,0,0,0,2.6533,2.6555,2.6575,2.6648,2.6672,2.6767,2.6771,2.6783,2.6818,2.6821,2.6895,2.6907,2.6944,2.7017,2.7033,2.7056,2.7034,2.7205,2.7208,2.721,2.7189,2.7191,2.7193,0,0,0,0,0,2.6526,2.6564,2.6576,2.6594,2.6699,2.6768,2.6782,2.6823,2.682,2.6842,2.6887,2.6904,2.7043,2.7024,2.7042,2.7067,2.7204,2.7207,2.721,2.7188,2.7191,2.7193,0,0,0,0,0,0,2.6493,2.6575,2.6588,2.6651,2.6702,2.6775,2.6804,2.6823,2.6878,2.6878,2.6927,2.6944,2.7008,2.7045,2.7021,2.7129,2.7125,2.7131,2.7102,2.7105,2.7107,2.7097,2.704,0,0,0,0,0,2.6493,2.6541,2.661,2.6659,2.6684,2.674,2.6772,2.6799,2.6854,2.6877,2.6926,2.6981,2.7037,2.7073,2.7128,2.7195,2.7214,2.7222,2.7223,2.7225,2.723,2.7272,2.7277,2.722,2.722,2.722,0,0,2.6493,2.6544,2.6571,2.6654,2.6697,2.6748,2.6758,2.681,2.685,2.6885,2.6952,2.699,2.7055,2.7123,2.7155,2.7155,2.725,2.7228,2.7228,2.7234,2.7275,2.728,2.7285,2.7222,2.7222,2.7222,0,0,2.652,2.6562,2.6609,2.6652,2.6717,2.6755,2.6766,2.6837,2.6863,2.6931,2.696,2.7008,2.7103,2.7149,2.7185,2.7234,2.7254,2.7251,2.726,2.73,2.7305,2.7309,2.7329,2.7335,2.7256,2.7256,2.7256,0,2.6513,2.6589,2.6631,2.6683,2.672,2.6755,2.6804,2.6845,2.6925,2.6951,2.6949,2.7072,2.7118,2.7199,2.7211,2.7238,2.7255,2.7242,2.73,2.7305,2.731,2.7329,2.7336,2.7255,2.7255,2.7255,2.7255,0,2.6579,2.6631,2.6662,2.6738,2.6779,2.6829,2.6881,2.6918,2.6943,2.6981,2.7052,2.7108,2.7177,2.7199,2.7223,2.7284,2.7283,2.729,2.7287,2.7314,2.7333,2.7341,2.7254,2.7255,2.7255,2.7255,0,0,2.6587,2.6687,2.6698,2.6735,2.681,2.6853,2.6907,2.6974,2.7006,2.7061,2.7109,2.7191,2.7199,2.724,2.727,2.7305,2.7344,2.7309,2.7312,2.7315,2.7419,2.7413,2.7421,2.7357,2.7359,2.736,2.7414,0,2.6625,2.6721,2.6762,2.684,2.6891,2.6926,2.6974,2.7027,2.7065,2.7116,2.716,2.7217,2.7222,2.7248,2.7284,2.7331,2.7366,2.7328,2.7406,2.7408,2.7389,2.7431,2.7425,2.7473,2.7422,2.7423,2.7424,0,2.6681,2.6737,2.682,2.6893,2.6916,2.6957,2.7024,2.7071,2.7134,2.716,2.7207,2.7236,2.7298,2.7291,2.7378,2.7351,2.7386,2.7415,2.7418,2.7427,2.7418,2.7443,2.7489,2.7496,2.7436,2.7435,2.7434,0,2.6682,2.6777,2.684,2.687,2.6956,2.6985,2.7023,2.7084,2.7123,2.7182,2.7208,2.7274,2.731,2.7362,2.741,2.74,2.7493,2.7489,2.7519,2.7518,2.7537,2.7535,2.759,2.7557,2.7557,2.7557,2.7557,0,2.6721,2.677,2.6842,2.688,2.6939,2.6987,2.7044,2.7085,2.714,2.7189,2.7224,2.727,2.733,2.7385,2.7423,2.7491,2.7507,2.7531,2.7541,2.7529,2.7526,2.7553,2.7551,2.7559,2.7558,2.7558,2.7558,0,2.673,2.6779,2.6851,2.6927,2.6948,2.6987,2.7054,2.7095,2.7135,2.7198,2.7216,2.728,2.7347,2.74,2.7486,2.7512,2.7585,2.7595,2.7563,2.7568,2.7595,2.7593,2.767,2.7684,2.764,2.764,2.7641,0,2.6752,2.6791,2.6872,2.6907,2.6945,2.7,2.7041,2.7091,2.7132,2.7208,2.7241,2.731,2.7367,2.7473,2.7529,2.7597,2.761,2.7633,2.762,2.7608,2.7613,2.761,2.7616,2.7634,2.7634,2.7634,2.7635,0,2.6786,2.681,2.6865,2.6931,2.6977,2.7031,2.7086,2.7114,2.7175,2.722,2.7288,2.7333,2.7422,2.7492,2.7566,2.7608,2.7633,2.7638,2.7649,2.7637,2.7618,2.7631,2.7569,2.7636,2.7636,2.7636,2.7636,2.7636,2.6804,2.6842,2.6906,2.6968,2.7015,2.7066,2.7109,2.7156,2.7213,2.7289,2.7316,2.7387,2.7453,2.7555,2.7598,2.7656,2.7658,2.7673,2.7677,2.768,2.768,2.7608,2.767,2.767,2.767,2.767,2.767,0,2.6842,2.6886,2.6942,2.7018,2.7068,2.7086,2.7149,2.719,2.7252,2.731,2.7367,2.7447,2.7516,2.7578,2.765,2.7685,2.7699,2.7703,2.7701,2.7711,2.7673,2.7657,2.7691,2.7691,2.7691,2.7691,2.7691,2.7691,2.6868,2.6934,2.6965,2.7056,2.71,2.7169,2.7204,2.7253,2.73,2.7388,2.7445,2.7485,2.7547,2.7624,2.7689,2.7706,2.7732,2.7733,2.7753,2.7716,2.7713,2.7711,2.7696,2.7738,2.7738,2.7787,2.7787,2.7788]},{"header":{"parameterUnit":"m.s-1","parameterCategory":1,"la1":30.2991,"la2":30.254,"lo1":-89.0895,"lo2":-89.0444,"dy":0.0017,"dx":0.0017,"nx":28,"ny":28,"refTime":"2024-04-12T03:00:00:Z","depth":0,"parameterNumber":3,"parameterNumberName":"V-component_of_WINDS"},"data":[0,0,0,0,0,0,0,0,0,0,0,0,0,0,0,0,0,0,0,0,0,0,0,0,0,0,0,0,0,0,0,0,0,0,0,0,0,0,0,0,0,0,0,0,0,0,0,0,0,0,0,0,0,0,0,0,0,0,-2.4777,-2.4777,0,-2.4708,-2.4707,-2.4706,-2.476,-2.4762,-2.4765,-2.4767,-2.4691,-2.4687,-2.4683,0,0,0,0,0,0,0,0,0,0,0,0,0,-2.4953,-2.4949,-2.4777,-2.4776,-2.4776,-2.4708,-2.4707,-2.4706,-2.476,-2.4762,-2.4765,-2.4768,-2.4692,-2.4687,-2.4682,0,0,0,0,0,0,0,0,0,0,0,0,0,-2.4879,-2.4948,-2.4777,-2.4794,-2.4795,-2.4708,-2.4707,-2.4706,-2.4759,-2.4763,-2.4766,-2.4769,-2.4694,-2.4688,-2.4682,-2.4573,0,0,-2.4662,-2.466,0,0,0,0,0,0,0,0,-2.4883,-2.4873,-2.4793,-2.4793,-2.4794,-2.4746,-2.4741,-2.4661,-2.4758,-2.4773,-2.4767,-2.4771,-2.4706,-2.4699,-2.4678,-2.4569,-2.4566,-2.4662,-2.4658,-2.4655,-2.4653,0,0,0,0,0,0,0,-2.4888,-2.4876,-2.475,-2.4791,-2.4792,-2.4804,-2.4798,-2.4726,-2.472,-2.4772,-2.4775,-2.4767,-2.4707,-2.4684,-2.4677,-2.4565,-2.4662,-2.4656,-2.4652,-2.465,-2.4362,-2.4359,0,0,0,0,0,0,-2.4892,-2.488,-2.4752,-2.4748,-2.4848,-2.4798,-2.4791,-2.4758,-2.4721,-2.4719,-2.4764,-2.4769,-2.4693,-2.4684,-2.4674,-2.4544,-2.4655,-2.4649,-2.4646,-2.4366,-2.4362,-2.4357,0,0,0,0,0,0,-2.4896,-2.488,-2.4755,-2.4815,-2.48,-2.4791,-2.4754,-2.4755,-2.4732,-2.4716,-2.4714,-2.4741,-2.4696,-2.4683,-2.4598,-2.4542,-2.4647,-2.4641,-2.4371,-2.4365,-2.436,-2.4282,0,0,0,0,0,0,-2.4901,-2.4881,-2.4841,-2.4813,-2.4796,-2.468,-2.4751,-2.4751,-2.4721,-2.4728,-2.4694,-2.4692,-2.4697,-2.4607,-2.4592,-2.4535,-2.4636,-2.4376,-2.4368,-2.4361,-2.4289,-2.4274,-2.4261,0,0,0,0,0,-2.4907,-2.4821,-2.4838,-2.4823,-2.4745,-2.4677,-2.4667,-2.4676,-2.4717,-2.4675,-2.4665,-2.4693,-2.4551,-2.4598,-2.4581,-2.4522,-2.4379,-2.437,-2.4362,-2.4296,-2.4277,-2.4261,0,0,0,0,0,0,-2.4839,-2.4817,-2.4837,-2.4739,-2.471,-2.4686,-2.4634,-2.4656,-2.4613,-2.4621,-2.4633,-2.4625,-2.4535,-2.452,-2.4573,-2.4414,-2.4471,-2.4459,-2.4427,-2.4409,-2.4395,-2.44,-2.4631,0,0,0,0,0,-2.4814,-2.4761,-2.4744,-2.466,-2.4644,-2.4641,-2.4612,-2.4622,-2.4591,-2.4578,-2.4562,-2.4529,-2.4478,-2.4443,-2.4394,-2.4288,-2.4281,-2.4239,-2.4225,-2.4214,-2.4202,-2.4144,-2.4125,-2.4329,-2.4329,-2.4329,0,0,-2.4758,-2.474,-2.4706,-2.4646,-2.4624,-2.4568,-2.463,-2.4568,-2.4526,-2.4568,-2.4487,-2.4474,-2.4438,-2.4342,-2.4299,-2.4327,-2.4145,-2.4203,-2.4194,-2.4188,-2.4133,-2.4114,-2.4097,-2.4323,-2.4324,-2.4325,0,0,-2.463,-2.4611,-2.4539,-2.4516,-2.4483,-2.4482,-2.4465,-2.4438,-2.4431,-2.435,-2.4381,-2.4331,-2.4241,-2.4215,-2.419,-2.4053,-2.4077,-2.4037,-2.3962,-2.3905,-2.3889,-2.3875,-2.3824,-2.3806,-2.4026,-2.4025,-2.4025,0,-2.4565,-2.4483,-2.4498,-2.4434,-2.4406,-2.4444,-2.437,-2.4347,-2.4299,-2.4278,-2.4311,-2.42,-2.4179,-2.4077,-2.4044,-2.4023,-2.4002,-2.4039,-2.3891,-2.3877,-2.3863,-2.3815,-2.3797,-2.4021,-2.4021,-2.4022,-2.4022,0,-2.4405,-2.4348,-2.4293,-2.4247,-2.4214,-2.4145,-2.4148,-2.4112,-2.4126,-2.4121,-2.4037,-2.4014,-2.3961,-2.3939,-2.395,-2.3837,-2.3856,-2.389,-2.3947,-2.3839,-2.3794,-2.3776,-2.4014,-2.4015,-2.4017,-2.4018,0,0,-2.4228,-2.4194,-2.4173,-2.4153,-2.4121,-2.4076,-2.4009,-2.3959,-2.3927,-2.3894,-2.3836,-2.3761,-2.3792,-2.3764,-2.3773,-2.3724,-2.3615,-2.3763,-2.3763,-2.3735,-2.3488,-2.3461,-2.344,-2.3632,-2.3629,-2.3626,-2.349,0,-2.4097,-2.3981,-2.3993,-2.3883,-2.383,-2.3866,-2.3807,-2.378,-2.3774,-2.3727,-2.3721,-2.3666,-2.3713,-2.3695,-2.3649,-2.3638,-2.3565,-2.3649,-2.3577,-2.3574,-2.3582,-2.3417,-2.3388,-2.3261,-2.3473,-2.347,-2.3468,0,-2.3927,-2.3889,-2.3774,-2.375,-2.3728,-2.3675,-2.363,-2.3586,-2.3556,-2.3555,-2.3524,-2.3542,-2.3474,-2.3535,-2.3439,-2.3496,-2.3468,-2.3458,-2.3454,-2.3445,-2.3513,-2.3402,-2.3221,-2.3201,-2.3441,-2.3443,-2.3445,0,-2.3808,-2.3728,-2.3649,-2.3631,-2.3601,-2.3563,-2.3549,-2.3522,-2.3492,-2.3453,-2.3433,-2.3386,-2.3359,-2.3322,-2.3326,-2.3371,-2.3229,-2.3291,-2.3225,-2.3224,-2.3191,-2.3192,-2.3,-2.3176,-2.3177,-2.3177,-2.3177,0,-2.3659,-2.3586,-2.3595,-2.3546,-2.3465,-2.348,-2.34,-2.339,-2.3366,-2.3315,-2.3344,-2.3294,-2.3305,-2.3255,-2.3259,-2.3179,-2.3167,-2.3163,-2.3164,-2.3159,-2.3159,-2.3139,-2.3147,-2.3172,-2.3173,-2.3174,-2.3175,0,-2.3511,-2.3514,-2.343,-2.341,-2.3403,-2.3344,-2.3326,-2.3279,-2.3277,-2.3211,-2.3197,-2.3192,-2.3136,-2.3138,-2.3073,-2.3076,-2.2977,-2.2989,-2.2987,-2.2988,-2.2922,-2.2927,-2.2708,-2.2679,-2.2876,-2.2874,-2.2873,0,-2.3414,-2.3359,-2.3334,-2.3302,-2.3286,-2.3234,-2.3204,-2.3217,-2.3183,-2.3146,-2.3103,-2.305,-2.3007,-2.2915,-2.2905,-2.2856,-2.2866,-2.2793,-2.2859,-2.2855,-2.2863,-2.2865,-2.2859,-2.2779,-2.2777,-2.2775,-2.2774,0,-2.3241,-2.3246,-2.3201,-2.3157,-2.3121,-2.3087,-2.3055,-2.3027,-2.3037,-2.2998,-2.2942,-2.2909,-2.2844,-2.279,-2.2744,-2.2728,-2.2751,-2.2754,-2.2736,-2.2728,-2.2728,-2.2725,-2.2949,-2.2758,-2.276,-2.2761,-2.2762,-2.2762,-2.3114,-2.3067,-2.3042,-2.2991,-2.297,-2.294,-2.2895,-2.2888,-2.2842,-2.2791,-2.2802,-2.2738,-2.2709,-2.2649,-2.2629,-2.2579,-2.2604,-2.2578,-2.2571,-2.2564,-2.2556,-2.2739,-2.257,-2.2571,-2.2571,-2.2572,-2.2572,0,-2.2941,-2.2927,-2.2881,-2.2837,-2.2797,-2.2826,-2.2793,-2.2758,-2.2702,-2.2674,-2.2633,-2.2568,-2.2516,-2.2503,-2.2453,-2.2415,-2.2424,-2.2401,-2.2402,-2.2398,-2.2536,-2.2556,-2.2394,-2.2394,-2.2394,-2.2394,-2.2394,-2.2394,-2.2846,-2.2767,-2.2769,-2.268,-2.2667,-2.2606,-2.2585,-2.2557,-2.2535,-2.2462,-2.242,-2.2412,-2.239,-2.2339,-2.2292,-2.229,-2.2269,-2.2241,-2.2242,-2.2371,-2.2389,-2.2405,-2.2424,-2.2237,-2.2237,-2.2108,-2.2107,-2.2106]}]]